Forside
METAR-TAF:

METAR-TAF

Lufthavne :

Anoka County-Blaine Airport (Janes Field)

Minneapolis / Blaine, Minnesota, USA

Breddekreds: 45-09N, længdekreds: 093-13W, højde: 278 m

Aktuelle vejr

Denne rapport blev lavet for 5 timer og 26 minutter siden, kl. 02:45 UTC
Vind 4 kt fra sydvest
Temperatur 22°C
Fugtighed 73%
Tryk 1019 hPa
Sigt: 4.8 km
Spredte skyer i en højde af 20000 ft
røg

METAR: KANE 310245Z 23004KT 3SM FU SCT200 22/17 A3009

Tid: 03:11 (08:11 UTC)


TAF: fraværende

Vejrobservationer og prognoser fra mere end 4000 lufthavne (METAR og TAF).

De gule og røde prikker repræsenterer de meteorologiske stationer.

Flyt musen over at se navnet på stationen.

Så klik over at se vejr observationer og prognoser.

At skifte det kort: Klik på de grønne knapper med et sort kors for at zoome ind; på den grønne knap med en bindestreg for at zoome ud; eller på de grønne pile for tilstødende kort.


METAR-TAF: